Find Local Weather

World > North America > United States > Michigan

Harbor Beach, Michigan Regional Weather

Lat: 43.85N, Lon: 82.65W
Wx Zone: MIZ049
Warning FLW WEATHER ALERT - (More Info. Click Here) Warning
Feedback
Expires:201810160100;;245462
ASUS43 KDTX 160010
RWRMI 
MICHIGAN HOURLY REGIONAL WEATHER ROUNDUP
NATIONAL WEATHER SERVICE DETROIT/PONTIAC MI
800 PM EDT MON OCT 15 2018

NOTE: "FAIR" INDICATES FEW OR NO CLOUDS BELOW 12,000 FEET WITH NO
SIGNIFICANT WEATHER AND/OR OBSTRUCTION TO VISIBILITY.


MIZ047>049-052>055-059>063-066>070-074>076-081>083-160100-
SOUTHEAST LOWER MICHIGAN
  
CITY           SKY/WX    TMP DP  RH WIND       PRES   REMARKS
ADRIAN         FAIR      41  26  55 NW9       30.20R                  
6HR MIN TEMP:  41; 6HR MAX TEMP:  51;                                

ALMA           MOCLDY    38  26  61 W9        30.16R WCI  32          
6HR MIN TEMP:  38; 6HR MAX TEMP:  45;                                

ANN ARBOR      FAIR      39  26  59 W9        30.16R WCI  33          
BAD AXE        MOCLDY    40  23  50 W15G23    30.08R WCI  32          
6HR MIN TEMP:  40; 6HR MAX TEMP:  47;                                

CARO           FAIR      38  24  57 W9        30.12R WCI  31          
DETROIT CITY   FAIR      43  24  47 W9G23     30.14R                  
6HR MIN TEMP:  43; 6HR MAX TEMP:  53;                                

DETROIT        FAIR      43  25  49 W14       30.16R                  
6HR MIN TEMP:  43; 6HR MAX TEMP:  54;                                

FLINT          FAIR      39  25  57 W13       30.15R WCI  31          
6HR MIN TEMP:  39; 6HR MAX TEMP:  47; 6HR PCP: TRACE;                

GROSSE ILE     FAIR      43  27  53 NW13      30.15R                  
6HR MIN TEMP:  43; 6HR MAX TEMP:  53;                                

HILLSDALE      FAIR      37  27  65 W5        30.18R WCI  34          
HOWELL         FAIR      39  27  62 W10G17    30.15R WCI  32          
6HR MIN TEMP:  39; 6HR MAX TEMP:  49;                                


CITY           SKY/WX    TMP DP  RH WIND       PRES   REMARKS
JACKSON        FAIR      38  27  64 W9        30.17R WCI  31          
6HR MIN TEMP:  38; 6HR MAX TEMP:  49;                                

LAMBERTVILLE   FAIR      44  29  57 W5        30.18R                  
6HR MIN TEMP:  44; 6HR MAX TEMP:  54;                                

LANSING        MOCLDY    39  27  62 W8        30.17R WCI  33          
6HR MIN TEMP:  39; 6HR MAX TEMP:  46;                                

LAPEER         FAIR      40  25  55 W8        30.12R WCI  34          
6HR MIN TEMP:  40; 6HR MAX TEMP:  50;                                

MASON          FAIR      41  27  56 W8        30.16R                  
6HR MIN TEMP:  41; 6HR MAX TEMP:  50;                                

MONROE         FAIR      42  29  60 NW10      30.17R                  
6HR MIN TEMP:  41; 6HR MAX TEMP:  52;                                

MT. CLEMENS    PTCLDY    43  26  51 W12G22    30.11R                  
6HR MIN TEMP:  43; 6HR MAX TEMP:  53;                                

PONTIAC        FAIR      40  25  55 W17       30.12R WCI  31          
6HR MIN TEMP:  40; 6HR MAX TEMP:  50;                                

PORT HOPE        N/A     42  22  44 W18G26    30.05R                  
6HR MIN TEMP:  42; 6HR MAX TEMP:  48;                                

PORT HURON     FAIR      39  25  56 W6        30.12R WCI  35          
TRI CITIES     FAIR      39  25  57 W14       30.15R WCI  31          
6HR MIN TEMP:  39; 6HR MAX TEMP:  48;                                

MIDLAND        CLOUDY    40  24  51 W12G18    30.14R WCI  34          
6HR MIN TEMP:  40; 6HR MAX TEMP:  49;                                

TROY           FAIR      45  23  43 W12G17    30.15R                  
SAGINAW HB     FAIR      39  25  56 W14       30.13R WCI  31          
$$

SKY/WX - Weather  TMP - Temperature  DP - Dew Point  RH - Relative Humidity
WIND - Wind Direction/Speed PRES - Barometric Pressure